DW9113 Weather Reports


time (UTC)temp
F
wind
direction
speed
knots
gust
knots
rain 1hr
in
rain 24hr
in
rain mn
in
humidity
%
barometer
mb
20260509134530 47 0 0.0 8.7 0.00 0.00 0.00 73 1000.2
20260509133028 48 228 0.0 8.7 0.00 0.00 0.00 73 999.8
20260509131530 49 0 0.0 10.4 0.00 0.00 0.00 73 999.5
20260509130028 50 246 2.6 8.7 0.00 0.00 0.00 72 999.2
20260509124528 52 233 0.9 11.3 0.00 0.00 0.00 71 998.9
20260509123030 52 213 3.5 12.2 0.00 0.00 0.00 70 998.8
20260509121530 52 192 2.6 12.2 0.00 0.00 0.00 71 998.7
20260509120027 52 173 1.7 7.0 0.00 0.00 0.00 70 998.5
20260509114535 52 200 0.9 10.4 0.00 0.00 0.00 70 998.5
20260509113030 52 360 2.6 12.2 0.00 0.00 0.00 69 998.5
20260509111528 52 0 0.9 7.8 0.00 0.00 0.00 69 998.3
20260509110027 51 188 0.0 8.7 0.00 0.00 0.00 68 998.5
20260509104526 51 186 1.7 8.7 0.00 0.00 0.00 68 998.5
20260509103029 51 0 0.0 4.3 0.00 0.00 0.00 68 998.9
20260509101530 51 0 0.0 5.2 0.00 0.00 0.00 68 998.8
20260509100030 50 0 0.0 5.2 0.00 0.00 0.00 68 999.1
20260509094531 48 0 0.0 0.9 0.00 0.00 0.00 71 999.1
20260509093026 47 0 0.0 0.9 0.00 0.00 0.00 71 999.4
20260509091535 46 0 0.0 0.9 0.00 0.00 0.00 74 999.8
20260509090037 46 0 0.0 0.0 0.00 0.00 0.00 75 1000.0
20260509084529 46 0 0.0 0.0 0.00 0.00 0.00 76 1000.0
20260509083030 47 0 0.0 0.0 0.00 0.00 0.00 74 1000.2
20260509081529 48 0 0.0 0.0 0.00 0.00 0.00 74 1000.2
20260509080029 49 0 0.0 0.0 0.00 0.00 0.00 72 1000.4
20260509074528 50 0 0.0 0.0 0.00 0.00 0.00 69 1000.5
20260509073035 52 0 0.0 0.0 0.00 0.00 0.00 65 1000.8
20260509071526 54 0 0.0 0.0 0.00 0.00 0.00 56 1001.4
20260509070030 54 0 0.0 3.5 0.00 0.00 0.00 52 1001.7
20260509064528 54 0 0.0 7.0 0.00 0.00 0.00 50 1001.5
20260509063038 54 198 0.0 7.0 0.00 0.00 0.00 48 1001.8
20260509061529 54 175 2.6 8.7 0.00 0.00 0.00 46 1002.1
20260509060029 53 0 0.0 10.4 0.00 0.00 0.00 43 1002.4
20260509054535 53 130 4.3 9.6 0.00 0.00 0.00 42 1002.3
20260509053048 53 0 1.7 7.0 0.00 0.00 0.00 39 1002.7
20260509051528 52 173 0.0 4.3 0.00 0.00 0.00 40 1002.9
20260509050028 52 0 0.0 0.9 0.00 0.00 0.00 40 1002.7
20260509044526 52 0 0.0 5.2 0.00 0.00 0.00 39 1002.9
20260509043039 52 0 0.0 5.2 0.00 0.00 0.00 39 1003.1
20260509041530 53 0 0.0 1.7 0.00 0.00 0.00 39 1003.3
20260509040029 53 0 0.0 4.3 0.00 0.00 0.00 39 1003.7
20260509034527 53 0 0.0 1.7 0.00 0.00 0.00 38 1004.2
20260509033028 54 0 0.0 5.2 0.00 0.00 0.00 38 1004.0
20260509031531 54 360 0.0 8.7 0.00 0.00 0.00 38 1004.1
20260509030028 54 146 0.9 8.7 0.00 0.00 0.00 38 1004.1
20260509024529 54 0 0.0 2.6 0.00 0.00 0.00 38 1004.4
20260509023029 54 0 0.0 8.7 0.00 0.00 0.00 39 1004.3
20260509021526 53 0 0.0 1.7 0.00 0.00 0.00 40 1004.3
20260509020026 53 0 0.0 1.7 0.00 0.00 0.00 40 1004.3
20260509014530 53 0 0.0 1.7 0.00 0.00 0.00 41 1004.4
20260509013031 54 174 0.0 4.3 0.00 0.00 0.00 39 1004.4
20260509011528 54 171 0.0 2.6 0.00 0.00 0.00 40 1004.3
20260509010032 55 0 0.0 7.8 0.00 0.00 0.00 38 1004.3
20260509004528 56 0 0.0 7.8 0.00 0.00 0.00 36 1004.2
20260509003033 57 180 0.0 7.0 0.00 0.00 0.00 35 1004.3
20260509001529 57 164 2.6 8.7 0.00 0.00 0.00 34 1004.5
20260509000027 58 184 1.7 13.0 0.00 0.00 0.00 34 1004.5
20260508234531 58 166 3.5 12.2 0.00 0.00 0.00 33 1004.6
20260508233035 59 0 3.5 12.2 0.00 0.00 0.00 32 1004.8
20260508231528 59 200 3.5 13.0 0.00 0.00 0.00 33 1004.7
20260508230027 61 178 1.7 9.6 0.00 0.00 0.00 32 1004.9
20260508224529 61 165 5.2 14.8 0.00 0.00 0.00 31 1005.1
20260508223032 61 167 2.6 11.3 0.00 0.00 0.00 32 1005.0
20260508221528 60 202 3.5 13.9 0.00 0.00 0.00 31 1005.3
20260508220030 60 177 5.2 14.8 0.00 0.00 0.00 30 1005.2
20260508214532 61 164 3.5 21.7 0.00 0.00 0.00 32 1005.4
20260508213032 61 238 4.3 11.3 0.00 0.00 0.00 30 1005.4
20260508211531 61 209 1.7 12.2 0.00 0.00 0.00 32 1005.6
20260508210035 61 186 3.5 16.5 0.00 0.00 0.00 31 1005.8
20260508204532 63 311 7.0 17.4 0.00 0.00 0.00 28 1005.8
20260508203032 63 171 2.6 12.2 0.00 0.00 0.00 32 1006.0
20260508201528 63 250 0.9 8.7 0.00 0.00 0.00 33 1006.0
20260508200032 62 256 1.7 13.9 0.00 0.00 0.00 33 1006.3
20260508194530 63 228 2.6 11.3 0.00 0.00 0.00 29 1006.5
20260508193028 62 184 2.6 15.6 0.00 0.00 0.00 32 1006.7
20260508191532 61 360 4.3 14.8 0.00 0.00 0.00 30 1006.9
20260508190033 61 360 3.5 10.4 0.00 0.00 0.00 32 1007.1
20260508184530 61 268 0.9 15.6 0.00 0.00 0.00 38 1007.3
20260508183029 60 0 3.5 9.6 0.00 0.00 0.00 40 1007.4
20260508181538 60 0 1.7 11.3 0.00 0.00 0.00 42 1007.7
20260508180028 59 151 6.1 20.9 0.00 0.00 0.00 39 1008.0
20260508174533 59 261 3.5 11.3 0.00 0.00 0.00 42 1008.2
20260508173030 59 196 4.3 12.2 0.00 0.00 0.00 43 1008.5
20260508171537 58 248 6.1 15.6 0.00 0.00 0.00 42 1008.6
20260508170030 57 256 3.5 13.9 0.00 0.00 0.00 48 1008.7
20260508164529 57 261 2.6 14.8 0.00 0.00 0.00 48 1008.9
20260508163028 57 209 2.6 13.0 0.00 0.00 0.00 51 1009.0
20260508161545 58 252 4.3 14.8 0.00 0.00 0.00 45 1009.0
20260508160030 57 257 6.1 16.5 0.00 0.00 0.00 45 1008.9
20260508154530 57 246 3.5 11.3 0.00 0.00 0.00 50 1008.9
20260508153049 56 240 2.6 14.8 0.00 0.00 0.00 46 1009.1
20260508151530 56 255 2.6 9.6 0.00 0.00 0.00 52 1009.1
20260508150028 56 254 1.7 9.6 0.00 0.00 0.00 50 1009.2
20260508144528 55 190 1.7 10.4 0.00 0.00 0.00 54 1009.3
20260508143041 54 236 4.3 13.9 0.00 0.00 0.00 52 1009.4
20260508141530 55 300 3.5 12.2 0.00 0.00 0.00 53 1009.4
20260508140028 55 165 2.6 7.8 0.00 0.00 0.00 52 1009.3